Date String (YYYY-MM-DD hh:mm:ss) UTC,Instrument flags,absolute air pressure of the measurement (hPa),sample flow rate (lpm),inlet stack bypass flow (lpm),air temperature of the measurement (°C),ambient temperature measured by the external sensor (°C),aerosol sample conditioner tube jacket temperature (°C),OPC LED temperature (°C),internal box temperature (°C),relative humidity of the measurement (%),span deviation,mass concentration of particles derived from Lorenz-Mie calculation of OPC scattering (μg/m³),mass concentration of particles derived from Lorenz-Mie calculation of OPC scattering (μg/m³),mass concentration of particles derived from Lorenz-Mie calculation of OPC scattering (μg/m³)
DateTimeUTC,F1_M11,P_M11,Q1_M11,Q2_M11,T1_M11,T2_M11,T3_M11,T4_M11,T5_M11,U1_M11,ZSPAN_M11,X2_M11,X0_M11,X1_M11
2023-07-03 18:00:00,SystemResetWarning,0831.8,5.00,000.00,028.5,026.3,000.0,036.9,030.1,19.3,0000.0,0004.00,0012.14,0003.63
2023-07-03 18:01:00,SystemResetWarning,0832.1,4.99,000.00,028.6,026.6,000.0,036.9,030.2,19.4,0000.0,0004.04,0012.20,0003.64
2023-07-03 18:02:00,SystemResetWarning,0832.0,5.00,000.00,028.6,027.0,000.0,037.0,030.3,20.6,0000.0,0004.04,0012.13,0003.65
2023-07-03 18:03:00,SystemResetWarning,0832.2,5.01,000.00,028.6,027.2,000.0,037.0,030.3,20.1,0000.0,0004.07,0012.19,0003.66
2023-07-03 18:04:00,SystemResetWarning,0832.1,5.00,000.00,028.7,026.9,000.0,036.9,030.4,19.8,0000.0,0004.09,0011.37,0003.66
2023-07-03 18:05:00,SystemResetWarning,0831.8,4.99,000.00,028.6,025.2,000.0,036.8,030.1,19.4,0000.0,0004.10,0010.76,0003.66
2023-07-03 18:06:00,SystemResetWarning,0831.7,5.02,000.00,028.6,024.7,000.0,036.8,030.0,20.4,0000.0,0004.09,0010.07,0003.67
2023-07-03 18:07:00,SystemResetWarning,0831.7,5.01,000.00,028.5,025.1,000.0,036.8,029.9,20.1,0000.0,0004.06,0008.55,0003.66
2023-07-03 18:08:00,SystemResetWarning,0831.7,5.00,000.00,028.5,025.5,000.0,036.8,029.9,19.5,0000.0,0004.07,0008.52,0003.68
2023-07-03 18:09:00,SystemResetWarning,0831.7,5.00,000.00,028.5,025.9,000.0,036.9,030.0,19.3,0000.0,0004.07,0008.03,0003.68
2023-07-03 18:10:00,SystemResetWarning,0831.7,4.99,000.00,028.5,026.3,000.0,036.9,030.1,19.8,0000.0,0004.05,0007.26,0003.68
2023-07-03 18:11:00,SystemResetWarning,0831.7,5.00,000.00,028.5,026.7,000.0,036.9,030.2,19.9,0000.0,0004.05,0007.11,0003.69
2023-07-03 18:12:00,SystemResetWarning,0831.7,4.99,000.00,028.6,027.0,000.0,036.9,030.2,19.7,0000.0,0004.04,0006.82,0003.70
2023-07-03 18:13:00,SystemResetWarning,0831.7,5.00,000.00,028.6,027.2,000.0,037.0,030.3,19.0,0000.0,0004.02,0006.75,0003.70
2023-07-03 18:14:00,SystemResetWarning,0831.6,5.00,000.00,028.6,027.1,000.0,036.9,030.4,18.8,0000.0,0004.03,0006.96,0003.71
2023-07-03 18:15:00,SystemResetWarning,0831.6,5.00,000.00,028.6,025.4,000.0,036.8,030.2,18.7,0000.0,0004.04,0007.71,0003.71
2023-07-03 18:16:00,SystemResetWarning,0831.6,5.00,000.00,028.6,024.7,000.0,036.7,030.0,19.0,0000.0,0004.04,0008.00,0003.71
2023-07-03 18:17:00,SystemResetWarning,0831.6,5.01,000.00,028.5,025.0,000.0,036.7,029.9,20.0,0000.0,0004.04,0008.11,0003.70
2023-07-03 18:18:00,SystemResetWarning,0831.6,5.01,000.00,028.5,025.4,000.0,036.8,029.9,19.0,0000.0,0004.04,0008.21,0003.70
2023-07-03 18:19:00,SystemResetWarning,0831.6,5.00,000.00,028.5,025.9,000.0,036.8,030.0,18.6,0000.0,0004.06,0008.29,0003.69
2023-07-03 18:20:00,SystemResetWarning,0831.6,4.99,000.00,028.5,026.3,000.0,036.8,030.1,18.6,0000.0,0004.06,0008.71,0003.67
2023-07-03 18:21:00,SystemResetWarning,0831.6,4.99,000.00,028.5,026.6,000.0,036.9,030.1,19.5,0000.0,0004.04,0008.76,0003.66
2023-07-03 18:22:00,SystemResetWarning,0831.6,5.00,000.00,028.5,026.9,000.0,036.9,030.2,18.0,0000.0,0004.03,0008.75,0003.66
2023-07-03 18:23:00,SystemResetWarning,0831.6,5.00,000.00,028.6,027.2,000.0,036.9,030.3,18.6,0000.0,0004.05,0008.78,0003.65
2023-07-03 18:24:00,SystemResetWarning,0831.6,5.00,000.00,028.6,027.2,000.0,036.9,030.4,18.7,0000.0,0004.07,0008.88,0003.64
2023-07-03 18:25:00,SystemResetWarning,0831.6,4.98,000.00,028.6,025.7,000.0,036.8,030.2,18.9,0000.0,0004.07,0008.84,0003.63
2023-07-03 18:26:00,SystemResetWarning,0831.6,5.01,000.00,028.6,024.6,000.0,036.7,030.0,18.1,0000.0,0004.09,0008.44,0003.63
2023-07-03 18:27:00,SystemResetWarning,0831.5,5.01,000.00,028.5,025.0,000.0,036.7,029.9,19.1,0000.0,0004.09,0008.26,0003.62
2023-07-03 18:28:00,SystemResetWarning,0831.6,4.99,000.00,028.5,025.4,000.0,036.8,029.9,19.3,0000.0,0004.07,0008.08,0003.62
2023-07-03 18:29:00,SystemResetWarning,0831.6,5.00,000.00,028.5,025.8,000.0,036.8,030.0,19.4,0000.0,0004.04,0007.93,0003.61
2023-07-03 18:30:00,SystemResetWarning,0831.6,5.00,000.00,028.5,026.2,000.0,036.8,030.0,20.1,0000.0,0004.03,0008.02,0003.62
2023-07-03 18:31:00,SystemResetWarning,0831.6,4.99,000.00,028.5,026.6,000.0,036.9,030.1,18.3,0000.0,0004.04,0007.77,0003.63
2023-07-03 18:32:00,SystemResetWarning,0831.5,5.00,000.00,028.5,026.9,000.0,036.9,030.2,18.1,0000.0,0004.09,0007.86,0003.64
2023-07-03 18:33:00,SystemResetWarning,0831.6,5.01,000.00,028.6,027.2,000.0,036.9,030.3,19.4,0000.0,0004.12,0008.00,0003.63
2023-07-03 18:34:00,SystemResetWarning,0831.5,5.00,000.00,028.6,027.3,000.0,036.9,030.4,18.5,0000.0,0004.08,0008.28,0003.62
2023-07-03 18:35:00,SystemResetWarning,0831.5,4.98,000.00,028.6,025.9,000.0,036.8,030.2,19.1,0000.0,0004.07,0008.33,0003.63
2023-07-03 18:36:00,SystemResetWarning,0831.5,5.01,000.00,028.5,024.6,000.0,036.7,030.0,18.6,0000.0,0004.07,0008.37,0003.63
2023-07-03 18:37:00,SystemResetWarning,0831.5,5.01,000.00,028.5,024.9,000.0,036.7,029.9,19.0,0000.0,0004.06,0008.31,0003.62
2023-07-03 18:38:00,SystemResetWarning,0831.5,4.99,000.00,028.4,025.3,000.0,036.7,029.8,19.1,0000.0,0004.08,0008.35,0003.62
2023-07-03 18:39:00,SystemResetWarning,0831.4,5.00,000.00,028.4,025.7,000.0,036.8,029.9,18.5,0000.0,0004.12,0008.66,0003.62
2023-07-03 18:40:00,SystemResetWarning,0831.4,5.01,000.00,028.4,026.2,000.0,036.8,030.0,17.8,0000.0,0004.19,0009.07,0003.63
2023-07-03 18:41:00,SystemResetWarning,0831.5,5.01,000.00,028.5,026.6,000.0,036.8,030.1,17.9,0000.0,0004.20,0009.26,0003.63
2023-07-03 18:42:00,SystemResetWarning,0831.5,4.99,000.00,028.5,026.9,000.0,036.9,030.2,18.4,0000.0,0004.21,0009.00,0003.63
2023-07-03 18:43:00,SystemResetWarning,0831.4,5.00,000.00,028.6,027.2,000.0,036.9,030.3,20.2,0000.0,0004.19,0008.88,0003.64
2023-07-03 18:44:00,SystemResetWarning,0831.5,5.00,000.00,028.6,027.3,000.0,036.9,030.4,17.8,0000.0,0004.16,0008.90,0003.65
2023-07-03 18:45:00,SystemResetWarning,0831.4,4.98,000.00,028.6,026.1,000.0,036.8,030.3,18.9,0000.0,0004.18,0008.62,0003.66
2023-07-03 18:46:00,SystemResetWarning,0831.3,5.01,000.00,028.6,024.8,000.0,036.7,030.1,20.1,0000.0,0004.18,0008.51,0003.66
2023-07-03 18:47:00,SystemResetWarning,0831.4,5.01,000.00,028.5,024.9,000.0,036.7,030.0,20.2,0000.0,0004.18,0008.46,0003.66
2023-07-03 18:48:00,SystemResetWarning,0831.4,5.00,000.00,028.5,025.3,000.0,036.7,029.9,21.0,0000.0,0004.15,0008.29,0003.66
2023-07-03 18:49:00,SystemResetWarning,0831.4,4.99,000.00,028.4,025.7,000.0,036.8,029.9,19.0,0000.0,0004.14,0008.43,0003.66
2023-07-03 18:50:00,SystemResetWarning,0831.4,5.01,000.00,028.5,026.2,000.0,036.8,030.0,18.0,0000.0,0004.12,0008.28,0003.66
2023-07-03 18:51:00,SystemResetWarning,0831.3,5.00,000.00,028.5,026.5,000.0,036.8,030.1,18.9,0000.0,0004.08,0008.02,0003.66
2023-07-03 18:52:00,SystemResetWarning,0831.3,4.99,000.00,028.5,026.9,000.0,036.9,030.2,19.4,0000.0,0004.11,0007.60,0003.67
2023-07-03 18:53:00,SystemResetWarning,0831.4,4.99,000.00,028.6,027.2,000.0,036.9,030.3,19.1,0000.0,0004.11,0007.64,0003.67
2023-07-03 18:54:00,SystemResetWarning,0831.3,4.99,000.00,028.6,027.0,000.0,036.9,030.3,18.1,0000.0,0004.10,0007.78,0003.66
2023-07-03 18:55:00,SystemResetWarning,0831.3,5.00,000.00,028.6,025.3,000.0,036.8,030.1,18.8,0000.0,0004.10,0007.66,0003.66
2023-07-03 18:56:00,SystemResetWarning,0831.3,5.00,000.00,028.5,024.6,000.0,036.7,029.9,20.6,0000.0,0004.10,0007.66,0003.66
2023-07-03 18:57:00,SystemResetWarning,0831.3,5.01,000.00,028.5,025.0,000.0,036.7,029.9,19.8,0000.0,0004.12,0008.05,0003.67
2023-07-03 18:58:00,SystemResetWarning,0831.3,5.01,000.00,028.4,025.4,000.0,036.7,029.8,18.3,0000.0,0004.15,0008.66,0003.67
2023-07-03 18:59:00,SystemResetWarning,0831.3,5.00,000.00,028.4,025.8,000.0,036.8,029.9,19.5,0000.0,0004.18,0008.86,0003.69
